Printer-friendly version

IAU Minor Planet Center

Minor Planet Center

MPEC 2010-F33 : 2010 FQ

The following Minor Planet Electronic Circular may be linked-to from your own Web pages, but must not otherwise be redistributed electronically.

A form allowing access to any MPEC is at the bottom of this page.


Read MPEC 2010-F32 Read MPEC 2010-F34


M.P.E.C. 2010-F33                                Issued 2010 Mar. 18, 20:57 UT

     The Minor Planet Electronic Circulars contain information on unusual
         minor planets and routine data on comets.  They are published
   on behalf of Commission 20 of the International Astronomical Union by the
          Minor Planet Center, Smithsonian Astrophysical Observatory,
                          Cambridge, MA 02138, U.S.A.

             Prepared using the Tamkin Foundation Computer Network

                              MPC@CFA.HARVARD.EDU
       URL http://www.minorplanetcenter.org/iau/mpc.html  ISSN 1523-6714

                                    2010 FQ

Observations:
     K10F00Q* C2010 03 18.16803 06 26 49.95 +61 32 43.6          17.9 V EF033703
     K10F00Q  C2010 03 18.17204 06 26 53.41 +61 32 59.3          18.2 V EF033703
     K10F00Q  C2010 03 18.17604 06 26 56.90 +61 33 14.9          17.9 V EF033703
     K10F00Q  C2010 03 18.18004 06 27 00.25 +61 33 29.6          18.1 V EF033703
     K10F00Q  C2010 03 18.23760 06 27 49.89 +61 37 05.3          18.0 V EF033703
     K10F00Q  C2010 03 18.23875 06 27 50.94 +61 37 11.4          17.6 V EF033703
     K10F00Q  C2010 03 18.23991 06 27 51.73 +61 37 15.0          17.7 V EF033703
     K10F00Q  C2010 03 18.24107 06 27 52.95 +61 37 18.0          18.0 V EF033703
     K10F00Q  C2010 03 18.24528 06 27 56.53 +61 37 30.6          17.7 R EF033H01
     K10F00Q  C2010 03 18.25275706 28 02.86 +61 37 42.2          18.3 V EF033H21
     K10F00Q  C2010 03 18.25318 06 28 03.45 +61 37 59.7          17.8 R EF033H01
     K10F00Q  C2010 03 18.25551506 28 05.31 +61 37 52.5          18.4 V EF033H21
     K10F00Q  C2010 03 18.25825806 28 07.76 +61 38 02.6          18.3 V EF033H21
     K10F00Q  C2010 03 18.26096406 28 10.18 +61 38 12.5          18.4 V EF033H21
     K10F00Q  C2010 03 18.26401 06 28 13.00 +61 38 39.5          17.7 R EF033H01
     K10F00Q  C2010 03 18.27157 06 28 19.63 +61 39 07.1          17.8 R EF033H01
     K10F00Q  C2010 03 18.27394 06 28 21.74 +61 39 19.6          18.2 R EF033926
     K10F00Q  C2010 03 18.27559 06 28 23.18 +61 39 25.6          18.1 R EF033926
     K10F00Q  C2010 03 18.27725 06 28 24.65 +61 39 31.7          18.0 R EF033926
     K10F00Q  C2010 03 18.31064 06 28 55.14 +61 41 14.3          17.7 R EF033H26
     K10F00Q  C2010 03 18.31300 06 28 57.38 +61 41 22.5          17.9 R EF033H26
     K10F00Q  C2010 03 18.31537 06 28 59.46 +61 41 31.4          17.8 R EF033H26
     K10F00Q  C2010 03 18.32012 06 29 03.96 +61 41 49.4          17.9 R EF033H26
     K10F00Q  C2010 03 18.33312 06 29 14.42 +61 42 53.7          18.2 R EF033854
     K10F00Q  C2010 03 18.33692 06 29 17.91 +61 43 08.6          18.2 R EF033854
     K10F00Q  C2010 03 18.34072 06 29 21.27 +61 43 20.4          18.3 R EF033854
     K10F00Q  C2010 03 18.80566906 36 30.32 +62 12 59.3          18.0 V EF033B03
     K10F00Q  C2010 03 18.81158406 36 35.58 +62 13 20.8          18.2 V EF033B03
     K10F00Q  C2010 03 18.81551606 36 39.10 +62 13 35.1          17.9 V EF033B03
     K10F00Q  C2010 03 18.81945606 36 42.67 +62 13 48.8          18.1 V EF033B03

Observer details:
703 Catalina Sky Survey.  Observer A. Boattini.  Measurers J. D. Ahern,
    E. C. Beshore, A. Boattini, G. J. Garradd, A. R. Gibbs, A. D. Grauer,
    R. E. Hill, R. A. Kowalski, S. M. Larson, R. H. McNaught.  0.68-m Schmidt
    + CCD.
854 Sabino Canyon Observatory, Tucson.  Observer J. E. McGaha.  0.36-m f/10.0
    Schmidt-Cassegrain + CCD.
926 Tenagra II Observatory.  Observers P. R. Holvorcem, M. Schwartz.  Measurer
    P. R. Holvorcem.  0.81-m f/7 Ritchey-Chretien + CCD.
B03 Alter Satzberg, Vienna.  Observer M. Pietschnig.  0.35-m f/5.8
    Schmidt-Cassegrain + CCD.
H01 Magdalena Ridge Observatory, Socorro.  Observers W. H. Ryan, E. V. Ryan.
    Measurer W. H. Ryan.  2.4-m f/8.9 reflector + CCD.
H21 Astronomical Research Observatory, Westfield.  Observer R. Holmes.
    Measurer S. Foglia.
H26 Doc Greiner Research Observatory, Janesvillle.  Observer M. Mills.  0.40-m
    f/8 Schmidt-Cassegrain + CCD.

Orbital elements:
2010 FQ                                             PHA, Earth MOID = 0.0074 AU
Epoch 2010 Jan. 4.0 TT = JDT 2455200.5                  MPC
M 335.68459              (2000.0)            P               Q
n   0.54802264     Peri.  356.31974     -0.74497944     -0.65686580
a   1.4788940      Node   141.77680     +0.61674118     -0.74466208
e   0.3380099      Incl.   10.83709     +0.25423603     -0.11834572
P   1.80           H   19.6           G   0.15           U   9
Residuals in seconds of arc
100318 703  0.1-  0.3-    100318 H01  0.0   0.1-    100318 H26  0.4+  0.1-
100318 703  0.1+  0.1+    100318 H21  0.1+  0.1+    100318 H26  0.1-  0.1+
100318 703  0.6+  0.5+    100318 H21  0.1+  0.2+    100318 H26  1.2+  0.8+
100318 703  0.0   0.0     100318 H21  0.1+  0.1+    100318 854  0.0   0.6-
100318 703  0.5-  0.2-    100318 H01  0.2+  0.1-    100318 854  0.6+  0.6+
100318 703  0.1-  1.6+    100318 H01  0.0   0.2-    100318 854  0.1+  1.3-
100318 703  1.7-  0.9+    100318 926  0.2+  0.4-    100318 B03  0.0   0.2-
100318 703  0.2-  0.4-    100318 926  0.1+  0.4-    100318 B03  0.2-  0.1+
100318 H01  0.0   0.1-    100318 926  0.2+  0.4-    100318 B03  0.1-  0.4+
100318 H21  0.1+  0.1-    100318 H26  0.3-  0.3+    100318 B03  0.2+  0.1+

Ephemeris:
2010 FQ                  a,e,i = 1.48, 0.34, 11                  q = 0.9790
Date    TT    R. A. (2000) Decl.     Delta      r     Elong.  Phase     V
2010 03 15    05 44.05   +57 29.5    0.148    1.012    92.7    78.9    18.2
2010 03 25    08 22.18   +65 50.1    0.165    1.041   100.9    70.1    18.2
2010 04 04    10 45.95   +62 06.9    0.196    1.077   108.2    61.8    18.4
2010 04 14    11 58.24   +54 05.7    0.235    1.119   113.9    55.0    18.7
2010 04 24    12 35.33   +45 56.7    0.282    1.165   117.9    49.7    19.0
2010 05 04    12 58.23   +38 26.2    0.335    1.213   120.4    45.8    19.4
2010 05 14    13 15.04   +31 35.7    0.396    1.263   121.3    43.1    19.8
2010 05 24    13 29.43   +25 21.4    0.465    1.314   120.9    41.4    20.2
2010 06 03    13 43.01   +19 41.4    0.543    1.364   119.3    40.4    20.5
2010 06 13    13 56.53   +14 33.0    0.628    1.415   116.8    39.9    20.9
2010 06 23    14 10.47   +09 53.5    0.722    1.464   113.6    39.5    21.3
2010 07 03    14 24.99   +05 41.1    0.824    1.511   109.9    39.2    21.6
2010 07 13    14 40.14   +01 53.2    0.933    1.557   105.9    38.9    22.0

Sonia Keys                   (C) Copyright 2010 MPC           M.P.E.C. 2010-F33

Read MPEC 2010-F32 Read MPEC 2010-F34


MPEC number:

Enter an
MPEC number in one of the following forms:
  • 1997-B01 (the full form)
  • J97B01 (the packed version of the full form)
  • B01 (the abbreviated form)

Valid HTML 4.01!